Location: Wien
(48.2082°N, 16.3738°E)
Time: 08:21:43
(UTC+02:00)

UNISAT 6 - Pass Details

Date: 03 May 2024
Orbit: 593 x 668 km, 97.7° (Epoch: 20 May)

Event Time Altitude Azimuth Distance (km) Brightness Sun altitude
Rises 04:37:18 0° 163° (SSE) 2,876 ? -8.7°
Reaches altitude 10° 04:39:30 10° 162° (SSE) 1,965 ? -8.4°
Maximum altitude 04:43:46 83° 75° (ENE) 615 ? -7.8°
Drops below altitude 10° 04:47:59 10° 348° (NNW) 1,948 ? -7.2°
Sets 04:50:09 0° 348° (NNW) 2,849 ? -6.9°
